• In Hungary
  • List of Countries
  • For 7 days
  • Water Temperature
  • Satellite Maps
  • Weather Map
  • News
  • Weather Widgets
  • user-avatar
    Login

    Hourly Weather Varna

    Today, 19 August, Sunday

    Time Temperature Precipitation Wind Pressure Humidity
    00:00 +22°C° 0 mm 3 mps 746 mmHg 58%
    01:00 +22°C° 0 mm 3 mps 746 mmHg 57%
    02:00 +22°C° 0 mm 3 mps 746 mmHg 61%
    03:00 +21°C° 0 mm 3 mps 746 mmHg 61%
    04:00 +21°C° 0 mm 4 mps 746 mmHg 62%
    05:00 +21°C° 0 mm 4 mps 746 mmHg 62%
    06:00 +23°C° 0 mm 4 mps 746 mmHg 58%
    07:00 +25°C° 0 mm 4 mps 747 mmHg 54%
    08:00 +27°C° 0 mm 4 mps 747 mmHg 52%
    09:00 +29°C° 0 mm 5 mps 747 mmHg 47%
    10:00 +32°C° 0 mm 5 mps 747 mmHg 41%
    11:00 +34°C° 0 mm 5 mps 747 mmHg 36%
    12:00 +34°C° 0 mm 5 mps 747 mmHg 36%
    13:00 +34°C° 0 mm 5 mps 747 mmHg 36%
    14:00 +34°C° 0 mm 5 mps 747 mmHg 37%
    15:00 +33°C° 0 mm 5 mps 747 mmHg 39%
    16:00 +33°C° 0 mm 5 mps 746 mmHg 41%
    17:00 +32°C° 0 mm 5 mps 746 mmHg 43%
    18:00 +29°C° 0 mm 5 mps 746 mmHg 51%
    19:00 +27°C° 0 mm 4 mps 746 mmHg 59%
    20:00 +25°C° 0 mm 4 mps 746 mmHg 67%
    21:00 +24°C° 0 mm 3 mps 746 mmHg 72%
    22:00 +24°C° 0 mm 3 mps 746 mmHg 77%
    23:00 +22°C° 0 mm 3 mps 746 mmHg 81%

    Tomorrow, 20 August, Monday

    Time Temperature Precipitation Wind Pressure Humidity
    00:00 +22°C° 0 mm 3 mps 746 mmHg 83%
    01:00 +21°C° 0 mm 3 mps 746 mmHg 84%
    02:00 +21°C° 0 mm 3 mps 746 mmHg 86%
    03:00 +21°C° 0 mm 3 mps 746 mmHg 85%
    04:00 +21°C° 0 mm 3 mps 746 mmHg 85%
    05:00 +20°C° 0 mm 4 mps 746 mmHg 85%
    06:00 +22°C° 0 mm 4 mps 746 mmHg 76%
    07:00 +23°C° 0 mm 5 mps 746 mmHg 68%
    08:00 +26°C° 0 mm 5 mps 746 mmHg 59%
    09:00 +28°C° 0 mm 6 mps 746 mmHg 51%
    10:00 +29°C° 0 mm 6 mps 746 mmHg 43%
    11:00 +30°C° 0 mm 7 mps 746 mmHg 35%
    12:00 +32°C° 0 mm 7 mps 746 mmHg 34%
    13:00 +32°C° 0 mm 7 mps 746 mmHg 33%
    14:00 +32°C° 0 mm 7 mps 746 mmHg 32%
    15:00 +30°C° 0 mm 6 mps 746 mmHg 34%
    16:00 +30°C° 0 mm 6 mps 746 mmHg 36%
    17:00 +29°C° 0 mm 6 mps 745 mmHg 38%
    18:00 +27°C° 0 mm 5 mps 745 mmHg 45%
    19:00 +25°C° 0 mm 4 mps 745 mmHg 52%
    20:00 +22°C° 0 mm 3 mps 746 mmHg 59%
    21:00 +21°C° 0 mm 3 mps 746 mmHg 62%
    22:00 +21°C° 0 mm 3 mps 746 mmHg 65%
    23:00 +20°C° 0 mm 2 mps 746 mmHg 68%

    Day after tomorrow, 21 August, Tuesday

    Time Temperature Precipitation Wind Pressure Humidity
    00:00 +20°C° 0 mm 2 mps 746 mmHg 68%
    01:00 +19°C° 0 mm 2 mps 745 mmHg 69%
    02:00 +19°C° 0 mm 2 mps 745 mmHg 70%
    03:00 +19°C° 0 mm 3 mps 745 mmHg 70%
    04:00 +19°C° 0 mm 3 mps 745 mmHg 70%
    05:00 +18°C° 0 mm 3 mps 745 mmHg 70%
    06:00 +20°C° 0 mm 4 mps 746 mmHg 64%
    07:00 +22°C° 0 mm 4 mps 746 mmHg 58%
    08:00 +25°C° 0 mm 4 mps 746 mmHg 51%
    09:00 +27°C° 0 mm 4 mps 746 mmHg 45%
    10:00 +28°C° 0 mm 5 mps 746 mmHg 39%
    11:00 +30°C° 0 mm 5 mps 747 mmHg 32%
    12:00 +32°C° 0 mm 5 mps 746 mmHg 31%
    13:00 +32°C° 0 mm 5 mps 746 mmHg 31%
    14:00 +33°C° 0 mm 5 mps 746 mmHg 30%
    15:00 +32°C° 0 mm 5 mps 746 mmHg 31%
    16:00 +30°C° 0 mm 5 mps 746 mmHg 33%
    17:00 +30°C° 0 mm 5 mps 746 mmHg 34%
    18:00 +27°C° 0 mm 4 mps 746 mmHg 41%
    19:00 +25°C° 0 mm 3 mps 746 mmHg 48%
    20:00 +22°C° 0 mm 3 mps 746 mmHg 56%
    21:00 +23°C° 0 mm 2 mps 746 mmHg 57%
    22:00 +21°C° 0 mm 2 mps 746 mmHg 58%
    23:00 +22°C° 0 mm 1 mps 746 mmHg 59%

    22 August, Wednesday

    Time Temperature Precipitation Wind Pressure Humidity
    00:00 +22°C° 0 mm 1 mps 746 mmHg 57%
    01:00 +20°C° 0 mm 2 mps 746 mmHg 54%
    02:00 +20°C° 0 mm 2 mps 746 mmHg 51%
    03:00 +20°C° 0 mm 2 mps 746 mmHg 49%
    04:00 +20°C° 0 mm 3 mps 747 mmHg 48%
    05:00 +20°C° 0 mm 3 mps 747 mmHg 46%
    06:00 +22°C° 0 mm 4 mps 747 mmHg 46%
    07:00 +23°C° 0 mm 4 mps 747 mmHg 45%
    08:00 +26°C° 0 mm 4 mps 747 mmHg 45%
    09:00 +28°C° 0 mm 4 mps 748 mmHg 43%
    10:00 +30°C° 0 mm 4 mps 748 mmHg 41%
    11:00 +33°C° 0 mm 5 mps 748 mmHg 39%
    12:00 +33°C° 0 mm 5 mps 748 mmHg 39%
    13:00 +33°C° 0 mm 5 mps 747 mmHg 40%
    14:00 +33°C° 0 mm 5 mps 747 mmHg 40%
    15:00 +32°C° 0 mm 5 mps 747 mmHg 43%
    16:00 +32°C° 0 mm 5 mps 747 mmHg 45%
    17:00 +30°C° 0 mm 5 mps 747 mmHg 48%
    18:00 +28°C° 0 mm 5 mps 747 mmHg 57%
    19:00 +26°C° 0 mm 4 mps 747 mmHg 65%
    20:00 +23°C° 0 mm 4 mps 747 mmHg 74%
    21:00 +24°C° 0 mm 3 mps 747 mmHg 77%
    22:00 +22°C° 0 mm 3 mps 747 mmHg 79%
    23:00 +22°C° 0 mm 3 mps 747 mmHg 82%

    23 August, Thursday

    Time Temperature Precipitation Wind Pressure Humidity
    00:00 +22°C° 0 mm 3 mps 747 mmHg 80%
    01:00 +21°C° 0 mm 4 mps 747 mmHg 79%
    02:00 +21°C° 0 mm 4 mps 747 mmHg 78%
    03:00 +21°C° 0 mm 4 mps 747 mmHg 78%
    04:00 +21°C° 0 mm 5 mps 747 mmHg 77%
    05:00 +20°C° 0 mm 5 mps 747 mmHg 77%
    06:00 +22°C° 0 mm 6 mps 747 mmHg 71%
    07:00 +24°C° 0 mm 6 mps 747 mmHg 66%
    08:00 +26°C° 0 mm 6 mps 747 mmHg 60%
    09:00 +28°C° 0 mm 7 mps 747 mmHg 55%
    10:00 +29°C° 0 mm 7 mps 747 mmHg 49%
    11:00 +30°C° 0 mm 7 mps 747 mmHg 43%
    12:00 +31°C° 0 mm 8 mps 747 mmHg 43%
    13:00 +32°C° 0 mm 8 mps 746 mmHg 43%
    14:00 +32°C° 0 mm 8 mps 746 mmHg 43%
    15:00 +31°C° 0 mm 8 mps 746 mmHg 46%
    16:00 +29°C° 0 mm 7 mps 746 mmHg 50%
    17:00 +29°C° 0 mm 7 mps 746 mmHg 53%
    18:00 +27°C° 0 mm 6 mps 746 mmHg 62%
    19:00 +25°C° 0 mm 5 mps 746 mmHg 71%
    20:00 +22°C° 0 mm 5 mps 746 mmHg 81%
    21:00 +22°C° 0 mm 4 mps 746 mmHg 84%
    22:00 +21°C° 0 mm 4 mps 746 mmHg 88%
    23:00 +20°C° 0 mm 4 mps 746 mmHg 92%

    24 August, Friday

    Time Temperature Precipitation Wind Pressure Humidity
    00:00 +20°C° 0 mm 4 mps 746 mmHg 92%
    01:00 +20°C° 0 mm 4 mps 745 mmHg 92%
    02:00 +20°C° 0 mm 4 mps 745 mmHg 92%
    03:00 +20°C° 0 mm 4 mps 745 mmHg 92%
    04:00 +20°C° 0 mm 4 mps 745 mmHg 91%
    05:00 +19°C° 0 mm 4 mps 745 mmHg 91%
    06:00 +21°C° 0 mm 4 mps 745 mmHg 84%
    07:00 +22°C° 0 mm 5 mps 745 mmHg 77%
    08:00 +25°C° 0 mm 5 mps 745 mmHg 69%
    09:00 +27°C° 0 mm 5 mps 745 mmHg 61%
    10:00 +28°C° 0 mm 5 mps 745 mmHg 53%
    11:00 +30°C° 0 mm 5 mps 745 mmHg 45%
    12:00 +32°C° 0 mm 5 mps 744 mmHg 42%
    13:00 +32°C° 0 mm 5 mps 744 mmHg 40%
    14:00 +33°C° 0 mm 5 mps 744 mmHg 37%
    15:00 +32°C° 0 mm 5 mps 743 mmHg 39%
    16:00 +32°C° 0 mm 5 mps 743 mmHg 41%
    17:00 +30°C° 0 mm 5 mps 743 mmHg 43%
    18:00 +28°C° 0 mm 4 mps 743 mmHg 53%
    19:00 +26°C° 0 mm 3 mps 743 mmHg 62%
    20:00 +22°C° 0 mm 3 mps 743 mmHg 72%
    21:00 +23°C° 0 mm 2 mps 743 mmHg 74%
    22:00 +21°C° 0 mm 2 mps 743 mmHg 76%
    23:00 +22°C° 0 mm 1 mps 743 mmHg 78%
    Show more